Temperature
18 17 17 17 17 17 17 17 17 17 17 17 17 17 17 16 17 16 16 16 16 16 16 16 16 16 16 17 17 17 17 17 17 17 16 16 16 16 16 15 15 15 15
17 17 17 17 17 17 17 17 17 17 17 17 17 17 16 16 16 16 16 16 16 16 16 16 16 16 16 16 16 16 16 16 16 16 16 16 15 15 15 15 14 14 14
17 17 17 17 17 17 17 17 17 17 17 17 16 16 16 16 16 16 16 16 16 16 16 16 16 16 16 16 16 16 16 15 15 15 15 15 15 14 14 14 14 13 13
17 17 17 17 17 17 17 17 17 17 16 16 16 16 16 16 16 16 16 16 15 15 15 15 15 15 15 15 15 15 15 15 15 15 14 14 14 14 13 13 13 13 13
17 17 17 17 17 16 16 16 16 16 16 16 16 16 16 16 16 15 15 15 15 15 15 15 15 15 15 15 14 14 14 14 14 14 13 13 13 13 13 12 12 12 12
17 17 17 16 16 16 16 16 16 16 16 16 16 16 15 15 15 15 15 15 15 15 15 14 14 14 14 14 14 14 14 13 13 13 13 12 12 12 12 11 11 11 11
17 16 16 16 16 16 16 16 16 16 16 15 15 15 15 15 15 15 15 14 14 14 14 14 14 13 13 13 13 13 13 13 12 12 12 12 11 11 11 10 10 10 10
16 16 16 16 16 16 16 15 15 15 15 15 15 15 15 15 14 14 14 14 14 14 13 13 13 13 13 13 12 12 12 12 11 11 11 11 10 10 10 9 9 9 9
16 16 16 16 16 16 15 15 15 15 15 15 14 14 14 14 14 14 14 13 13 13 12 12 12 12 12 12 11 11 11 10 10 10 10 9 9 9 9 8 8 8 8
16 16 16 16 16 15 15 15 15 14 14 14 14 14 13 13 13 13 13 13 12 12 12 11 11 11 11 11 10 10 10 9 9 9 9 8 8 8 7 7 7 7 6
16 16 15 15 15 15 15 14 14 14 14 13 13 13 13 12 12 12 12 12 12 11 11 11 10 10 10 10 9 9 9 8 8 8 8 7 7 7 6 6 6 6 6
15 15 15 14 14 14 14 14 13 13 13 13 12 12 12 12 11 11 11 11 11 11 10 10 9 9 9 9 9 8 8 7 7 7 7 6 6 6 6 6 5 5 5
15 14 14 14 14 13 13 13 13 13 12 12 12 11 11 11 10 10 10 10 10 10 9 9 8 8 8 7 7 7 7 6 6 6 6 6 5 5 5 5 5 5 5
14 14 13 13 13 12 12 12 12 12 12 11 11 11 10 10 9 9 9 9 9 8 8 8 7 7 7 6 6 6 6 6 6 5 5 5 5 5 5 5 4 4 4
13 13 12 12 12 12 11 11 11 11 11 11 11 10 10 9 8 8 8 8 8 8 7 7 7 6 6 6 6 5 5 5 5 5 5 5 4 4 4 4 4 4 4
13 12 12 11 11 11 10 10 10 10 10 10 10 9 9 8 8 8 7 7 7 7 7 6 6 6 6 6 6 5 5 5 4 4 4 4 4 4 4 4 4 4 3
12 11 11 10 10 10 9 9 9 8 8 8 8 8 8 8 7 7 7 7 7 7 6 6 6 6 5 5 5 5 5 4 4 4 4 4 4 4 4 3 3 3 3
11 11 10 10 9 9 9 8 8 8 7 7 7 7 7 7 6 6 6 6 6 6 6 6 5 5 5 5 5 5 4 4 4 4 4 3 3 3 3 3 3 3 3
10 10 9 9 9 8 8 8 7 7 7 7 6 6 6 6 6 6 6 6 6 6 6 5 5 5 5 5 4 4 4 4 4 3 3 3 3 3 3 3 3 2 2
10 9 9 9 8 8 8 7 7 7 6 6 6 6 5 5 5 5 5 6 6 6 5 5 5 5 4 4 4 4 4 3 3 3 3 2 2 2 2 2 2 2 2
9 8 8 8 8 8 7 7 7 6 6 6 5 6 6 6 5 5 5 6 6 5 5 5 5 4 4 4 4 3 3 3 3 2 2 2 2 2 2 2 2 2 2
8 8 8 8 8 7 7 7 7 7 6 6 6 6 6 6 6 6 5 5 5 5 5 5 4 4 4 3 3 3 3 3 2 2 2 2 1 1 1 1 1 2 2
8 8 8 8 8 8 7 7 7 7 7 6 6 6 6 6 6 5 5 5 5 5 5 4 4 4 3 3 3 3 3 2 2 2 2 1 1 1 1 1 1 1 1
8 8 8 8 8 8 8 7 7 7 7 6 6 6 6 6 5 5 5 5 5 4 4 4 4 4 3 3 3 3 3 2 2 2 2 2 1 1 1 1 1 1 1
9 8 8 8 8 8 8 8 7 7 7 6 6 6 6 6 5 5 5 5 4 4 4 4 4 3 3 3 3 3 2 2 2 2 2 2 1 1 1 1 1 1 1
9 8 8 8 8 8 8 8 7 7 7 7 6 6 6 6 5 5 5 5 5 4 4 4 4 3 3 3 3 3 2 2 2 2 2 2 1 1 1 1 1 1 1
Wind_Speed
7 7 6 7 7 7 7 7 6 5 6 6 7 7 7 7 7 6 6 6 7 5 4 4 4 2 1 1 1 1 1 1 0 1 2 3 3 4 3 2 3 7 6
6 6 6 6 6 6 7 6 6 6 6 6 6 6 7 7 6 7 7 7 7 6 5 4 4 3 2 1 1 1 1 1 1 0 1 2 2 2 2 1 2 2 2
7 6 6 6 6 6 6 6 5 5 5 5 6 6 6 6 6 6 6 5 5 5 4 4 3 3 2 1 0 1 2 2 1 1 0 1 2 2 2 2 3 3 3
7 7 6 6 6 6 5 5 5 6 5 5 5 6 6 6 6 6 6 5 5 5 4 4 3 3 2 2 1 1 2 2 2 1 1 2 3 3 3 2 2 3 3
7 7 7 6 5 5 5 5 6 5 6 5 5 5 5 5 6 7 7 7 7 6 6 6 6 8 9 6 4 3 3 2 2 2 2 3 4 4 4 3 3 3 4
5 6 6 6 6 5 5 5 5 5 5 5 5 5 5 5 7 9 8 7 7 7 7 6 7 9 11 13 15 14 9 5 3 3 3 4 5 5 4 4 4 4 2
5 5 5 6 5 5 6 6 6 5 5 5 5 5 5 7 10 11 10 8 7 6 6 5 5 7 8 9 12 15 15 15 11 7 6 5 4 4 4 4 4 4 3
5 5 5 5 5 5 5 5 6 5 5 5 6 7 7 8 11 12 12 8 8 7 6 6 7 6 6 7 9 10 10 10 9 8 7 6 5 4 4 3 4 4 3
5 5 5 5 5 5 6 6 6 7 7 7 7 8 9 9 10 12 11 9 8 8 8 8 8 8 10 10 10 10 9 7 11 12 10 8 7 7 7 4 5 5 4
4 5 5 5 5 6 7 7 7 8 9 9 9 9 10 9 9 10 9 8 9 9 9 10 12 11 12 11 9 8 8 5 4 4 3 3 2 4 6 5 4 5 5
5 6 6 6 7 7 7 7 9 9 10 10 11 10 9 9 10 11 9 7 8 9 8 8 8 13 14 13 10 8 7 4 2 2 2 2 3 3 5 6 5 3 3
7 7 7 7 7 7 8 8 9 10 11 10 10 10 8 8 10 12 13 12 11 10 9 8 8 12 13 12 9 8 8 5 2 3 4 4 4 4 3 4 4 4 4
8 8 8 8 7 7 8 8 8 8 8 8 8 9 8 8 10 15 15 16 15 11 10 12 11 11 10 8 8 7 5 3 3 4 4 4 3 2 3 3 4 5 7
9 9 8 9 9 8 7 6 6 6 7 8 8 9 9 8 7 8 9 11 14 13 10 10 10 8 5 4 3 3 2 4 4 4 4 3 3 3 3 3 4 4 4
10 10 10 10 10 10 10 9 8 7 5 7 7 8 9 9 7 9 9 8 7 8 7 5 4 4 3 3 3 4 3 4 4 3 3 3 4 4 3 3 3 4 4
9 9 9 9 9 10 11 12 18 15 16 15 13 12 10 12 13 13 13 12 11 8 6 5 5 4 4 4 4 3 3 4 3 3 3 4 4 4 4 4 4 4 5
9 9 9 9 9 10 10 11 12 14 18 18 17 16 15 14 14 13 12 10 7 5 4 5 5 4 4 3 3 3 4 3 3 3 3 4 4 5 4 4 4 5 5
10 10 10 9 9 10 10 10 10 11 11 10 11 13 14 13 12 10 8 6 4 3 3 4 4 4 3 4 4 4 3 3 3 3 4 4 5 5 5 5 5 5 6
9 8 8 9 10 10 10 10 10 11 11 11 9 8 9 9 8 5 3 2 4 4 4 4 4 4 5 4 4 3 3 3 4 4 4 4 5 5 5 5 5 7 6
9 13 11 10 10 9 9 10 10 10 11 10 9 9 7 6 5 4 3 2 3 4 4 5 5 5 5 4 4 3 3 4 4 5 5 5 5 5 6 6 6 6 6
10 11 12 11 10 10 9 9 10 10 10 9 8 7 8 6 6 5 4 3 4 5 5 5 5 4 4 3 3 3 4 5 5 5 5 5 6 5 5 5 6 6 6
9 9 9 10 9 9 9 9 9 9 10 10 9 8 6 3 4 5 4 5 5 5 5 4 4 4 4 4 4 5 5 6 6 6 6 6 5 5 6 6 6 7 7
9 10 10 9 9 9 9 8 8 9 9 9 8 7 6 4 4 5 5 5 5 5 6 5 5 5 7 7 7 7 6 6 6 7 6 6 6 6 6 6 8 8 8
9 10 10 10 9 9 8 8 8 8 9 8 7 6 6 5 5 5 5 4 5 5 6 6 6 6 6 7 8 9 8 7 7 7 9 7 7 6 6 6 7 9 8
8 9 9 9 8 8 8 8 8 8 8 7 7 6 6 6 5 5 5 4 5 4 5 5 6 6 6 7 8 7 6 5 6 7 8 9 8 8 7 8 7 8 8
8 8 8 7 7 7 7 7 7 7 7 7 6 6 6 6 6 5 4 4 4 4 4 4 5 6 6 7 8 7 4 2 4 7 7 8 8 7 7 7 10 9 9
Wind_Direction
178 182 179 179 183 185 190 192 188 188 189 188 183 182 186 187 183 180 197 187 182 187 204 190 183 224 322 333 354 340 341 16 124 39 71 83 78 74 85 70 145 143 154
167 168 170 168 173 180 186 188 186 185 187 184 176 182 190 186 181 182 200 192 183 187 195 188 185 190 162 352 347 2 16 48 74 65 73 81 81 99 83 339 30 100 145
160 161 161 168 173 179 182 182 179 178 183 180 177 185 189 181 181 186 192 184 173 170 169 173 171 159 166 153 92 19 26 41 68 103 57 82 74 54 54 18 29 29 11
159 163 163 171 176 180 176 174 172 170 172 176 177 178 176 175 177 174 165 156 135 122 116 114 110 118 126 138 115 58 41 28 39 53 25 51 65 40 51 15 13 15 3
158 164 168 171 170 168 166 166 164 168 172 164 162 162 164 169 174 159 146 141 128 118 105 99 93 92 81 77 86 67 63 57 52 45 51 53 43 32 21 354 8 12 11
154 161 161 164 166 164 161 152 150 154 153 149 151 154 156 163 140 140 140 131 128 125 120 112 104 93 89 83 78 71 64 68 62 65 66 65 47 29 14 12 15 6 355
149 150 152 158 161 160 161 150 150 148 142 137 134 124 117 115 120 123 125 127 122 120 121 120 115 108 102 99 87 76 64 59 63 75 73 60 55 26 10 13 4 347 316
140 139 140 146 153 150 144 140 137 131 127 120 113 112 112 108 108 111 111 111 104 98 95 97 97 87 91 99 99 86 72 56 61 72 79 72 69 33 15 4 343 341 336
137 134 136 137 136 134 136 135 130 122 115 111 110 109 104 100 102 109 110 109 101 89 82 78 88 86 75 87 97 95 90 81 77 86 91 89 74 47 26 20 11 3 353
127 122 118 125 132 127 121 121 118 113 109 105 98 97 99 96 93 103 109 115 109 99 86 76 71 79 75 74 88 93 89 78 73 80 80 73 62 45 41 35 21 3 347
117 111 106 106 109 109 111 114 115 112 107 102 98 91 88 89 86 86 96 107 114 109 100 90 79 77 73 69 73 79 78 59 42 45 84 82 61 52 47 36 34 6 345
111 108 105 103 105 110 108 108 112 115 113 108 103 94 83 80 81 83 87 93 101 103 101 98 92 84 77 73 70 61 44 26 20 43 49 45 42 42 23 0 350 320 288
106 101 100 100 96 97 103 108 111 113 117 117 114 109 100 89 79 80 86 88 90 94 98 103 101 93 85 77 73 56 39 32 37 44 41 39 32 11 341 339 337 327 310
108 103 100 98 93 87 85 90 101 109 119 124 122 119 112 102 96 95 96 96 95 99 105 104 97 89 84 84 82 72 77 57 41 38 28 18 4 1 2 359 347 333 326
110 109 105 99 96 88 77 66 76 72 97 119 120 121 123 115 105 104 110 106 107 109 115 115 117 119 121 114 96 75 64 58 42 26 19 9 5 1 352 353 345 338 349
116 112 109 108 106 103 98 82 63 70 71 76 89 102 98 104 105 95 93 96 98 106 108 117 111 103 96 88 84 83 76 60 30 14 19 13 2 350 349 354 354 357 353
114 115 114 115 114 113 111 109 100 76 68 69 80 91 100 105 100 97 94 91 95 103 102 101 97 90 83 79 71 67 70 69 28 12 23 15 359 348 354 355 353 357 348
109 110 114 116 116 115 114 114 114 113 104 89 78 88 100 102 100 98 97 98 106 114 108 105 105 99 85 71 64 55 55 57 29 10 28 14 359 352 356 353 349 356 337
113 114 112 111 111 113 114 114 114 114 114 114 113 102 100 105 101 101 108 121 114 112 106 98 96 90 81 73 61 46 46 55 30 9 28 12 1 354 352 344 341 343 332
108 115 116 116 115 116 117 118 118 118 119 121 125 129 137 142 134 136 146 139 113 102 99 93 85 81 74 67 59 38 40 52 33 23 23 8 359 354 346 342 343 340 335
118 121 122 118 118 121 122 124 125 126 127 128 130 139 149 146 139 138 135 119 100 93 87 87 90 89 85 78 58 33 42 46 37 23 12 360 353 348 340 340 341 338 333
124 125 123 121 123 126 131 132 130 129 131 132 137 149 167 157 132 123 113 104 97 90 91 88 90 82 72 65 55 39 44 42 31 15 358 349 345 340 339 341 341 335 331
123 123 122 123 126 131 134 131 133 135 135 135 139 144 147 140 123 114 109 103 98 100 101 96 93 87 80 75 69 62 52 39 18 6 351 343 337 332 332 337 333 331 332
129 129 129 132 135 138 136 136 136 134 131 132 134 135 135 132 121 116 115 108 107 107 106 103 100 95 88 85 83 78 68 48 19 4 349 329 324 326 329 330 328 328 325
127 130 133 136 136 137 137 136 133 133 136 138 139 138 137 135 132 128 123 121 123 123 125 122 117 111 102 95 98 98 84 54 25 1 337 321 315 314 322 328 326 322 326
131 131 131 133 135 136 137 138 139 139 141 142 142 143 146 147 144 141 140 141 145 143 143 139 133 130 129 124 123 124 111 53 359 345 329 307 303 312 331 324 323 326 329
Height
1500 1502 1504 1507 1509 1512 1515 1518 1521 1523 1526 1528 1531 1533 1536 1539 1541 1544 1546 1549 1552 1554 1556 1558 1560 1562 1564 1565 1566 1567 1568 1569 1570 1571 1571 1572 1572 1572 1572 1572 1572 1571 1570
1499 1501 1503 1505 1507 1510 1513 1515 1518 1520 1523 1525 1528 1530 1533 1535 1538 1541 1543 1546 1549 1551 1553 1555 1557 1559 1560 1562 1563 1565 1566 1567 1568 1568 1569 1569 1569 1569 1570 1570 1569 1568 1568
1499 1500 1502 1504 1506 1508 1510 1512 1515 1517 1520 1522 1524 1527 1530 1532 1535 1538 1541 1543 1546 1548 1550 1552 1554 1556 1557 1559 1560 1562 1563 1564 1565 1565 1566 1566 1566 1566 1567 1567 1567 1566 1565
1498 1499 1501 1502 1504 1506 1508 1510 1512 1514 1517 1519 1522 1524 1527 1529 1532 1535 1538 1540 1543 1545 1547 1549 1551 1553 1554 1556 1557 1558 1560 1561 1562 1563 1563 1563 1563 1563 1563 1564 1563 1563 1563
1498 1499 1500 1502 1503 1505 1507 1508 1511 1513 1515 1517 1520 1522 1524 1527 1530 1532 1535 1538 1540 1542 1544 1547 1548 1550 1551 1553 1554 1555 1557 1558 1559 1560 1560 1560 1560 1560 1560 1560 1560 1559 1559
1498 1499 1500 1501 1503 1504 1506 1507 1509 1511 1513 1516 1518 1520 1522 1525 1528 1530 1533 1535 1538 1540 1542 1544 1546 1547 1549 1550 1552 1553 1554 1555 1556 1557 1557 1557 1557 1558 1558 1558 1557 1557 1556
1497 1499 1500 1501 1502 1504 1505 1507 1508 1510 1512 1514 1517 1518 1520 1523 1526 1529 1531 1534 1536 1538 1540 1542 1543 1545 1546 1548 1549 1550 1551 1553 1554 1555 1555 1555 1555 1555 1556 1555 1555 1554 1554
1497 1498 1499 1501 1502 1503 1504 1506 1508 1510 1511 1513 1515 1517 1520 1522 1524 1527 1530 1532 1534 1536 1538 1540 1542 1544 1545 1546 1547 1548 1549 1551 1552 1553 1553 1553 1554 1554 1554 1553 1553 1552 1552
1496 1497 1499 1500 1501 1502 1503 1505 1507 1509 1510 1512 1515 1517 1519 1521 1524 1526 1529 1531 1533 1535 1537 1539 1541 1542 1544 1545 1546 1547 1548 1550 1551 1552 1552 1552 1552 1552 1552 1551 1550 1550 1549
1495 1496 1497 1499 1500 1501 1502 1504 1506 1508 1510 1512 1514 1517 1519 1521 1524 1525 1528 1529 1531 1533 1536 1538 1540 1542 1543 1544 1546 1547 1548 1550 1551 1551 1552 1552 1551 1551 1551 1550 1549 1549 1547
1494 1495 1496 1497 1499 1500 1502 1503 1505 1508 1510 1512 1515 1517 1520 1522 1524 1526 1527 1529 1531 1533 1535 1537 1540 1542 1543 1545 1546 1547 1549 1550 1551 1551 1552 1552 1552 1551 1551 1550 1549 1548 1547
1492 1494 1495 1497 1499 1500 1501 1503 1505 1508 1510 1513 1515 1517 1520 1522 1524 1526 1528 1530 1532 1534 1536 1538 1540 1542 1543 1545 1546 1548 1549 1550 1551 1552 1553 1552 1552 1551 1551 1550 1548 1547 1546
1491 1493 1494 1496 1498 1500 1502 1504 1506 1508 1510 1513 1515 1517 1519 1522 1525 1527 1529 1531 1533 1535 1537 1539 1541 1543 1544 1546 1547 1549 1549 1551 1552 1552 1553 1553 1552 1551 1550 1549 1547 1546 1545
1490 1492 1494 1496 1498 1500 1502 1504 1506 1508 1510 1512 1515 1517 1519 1522 1525 1527 1529 1531 1533 1536 1538 1540 1543 1544 1546 1547 1548 1550 1550 1551 1552 1553 1553 1553 1552 1551 1550 1548 1547 1545 1543
1490 1492 1494 1496 1498 1500 1502 1504 1506 1509 1511 1513 1515 1517 1519 1522 1526 1528 1531 1533 1535 1537 1539 1542 1544 1546 1548 1549 1550 1551 1552 1553 1553 1553 1553 1553 1552 1551 1550 1548 1546 1544 1543
1490 1492 1494 1496 1498 1500 1502 1505 1508 1510 1512 1515 1517 1519 1522 1525 1527 1530 1533 1535 1538 1540 1541 1544 1546 1549 1550 1552 1553 1553 1553 1553 1554 1554 1553 1553 1552 1551 1549 1548 1546 1544 1542
1490 1492 1494 1497 1499 1502 1504 1506 1509 1513 1515 1518 1520 1522 1525 1528 1530 1533 1536 1539 1541 1543 1544 1546 1549 1551 1552 1553 1554 1554 1555 1554 1554 1554 1553 1552 1551 1550 1549 1547 1545 1543 1541
1492 1494 1496 1498 1501 1504 1506 1509 1511 1513 1517 1520 1524 1526 1529 1531 1534 1537 1539 1542 1544 1546 1548 1549 1551 1553 1554 1555 1555 1556 1556 1555 1555 1554 1553 1552 1551 1550 1548 1546 1545 1542 1540
1494 1496 1498 1501 1504 1506 1509 1512 1514 1517 1519 1523 1526 1530 1533 1535 1537 1540 1542 1544 1547 1549 1551 1552 1553 1554 1555 1555 1556 1556 1556 1556 1555 1554 1553 1552 1551 1549 1547 1546 1544 1541 1539
1496 1499 1501 1504 1507 1509 1512 1515 1518 1520 1523 1526 1529 1532 1535 1538 1541 1543 1546 1547 1549 1551 1553 1554 1555 1555 1556 1556 1556 1556 1556 1556 1555 1554 1552 1551 1550 1548 1547 1545 1543 1540 1538
1499 1502 1505 1507 1510 1513 1516 1519 1521 1524 1527 1530 1533 1536 1538 1541 1544 1546 1548 1550 1551 1552 1554 1555 1555 1556 1556 1556 1556 1557 1556 1555 1554 1553 1552 1550 1549 1547 1545 1544 1542 1539 1536
1503 1505 1508 1510 1513 1517 1520 1523 1526 1528 1531 1534 1536 1539 1542 1544 1547 1549 1550 1551 1553 1554 1555 1556 1556 1557 1557 1557 1556 1556 1555 1554 1553 1552 1550 1549 1548 1546 1544 1542 1540 1538 1535
1507 1509 1512 1515 1518 1520 1524 1526 1529 1532 1534 1537 1540 1542 1544 1546 1548 1550 1551 1552 1553 1555 1556 1556 1557 1557 1556 1556 1556 1555 1554 1553 1552 1550 1549 1547 1546 1545 1543 1541 1539 1536 1534
1511 1513 1516 1518 1521 1524 1527 1530 1532 1534 1537 1539 1541 1544 1546 1547 1549 1551 1552 1553 1554 1555 1556 1556 1557 1557 1556 1556 1555 1554 1554 1552 1551 1549 1547 1546 1544 1543 1542 1540 1537 1535 1532
1515 1517 1519 1522 1524 1527 1529 1532 1534 1537 1539 1541 1543 1545 1547 1548 1550 1551 1552 1553 1554 1555 1556 1556 1556 1556 1556 1555 1555 1554 1553 1551 1549 1548 1546 1544 1543 1542 1540 1538 1536 1533 1531
1518 1520 1522 1525 1527 1529 1531 1534 1536 1538 1540 1542 1544 1546 1547 1549 1550 1551 1552 1553 1554 1555 1556 1556 1556 1555 1555 1554 1553 1552 1551 1550 1548 1546 1545 1543 1541 1540 1539 1536 1534 1532 1529